N9CQS-13 Weather Reports


time (UTC)temp
C
wind
direction
speed
KPH
gust
KPH
rain 1hr
cm
rain 24hr
cm
rain mn
cm
humidity
%
barometer
mb
20260906112133 20 23 4.8 6.4 0.00 0.00 0.00 88 1015.9
20260906111132 20 23 4.8 4.8 0.00 0.00 0.00 89 1015.5
20260906110131 20 338 0.0 4.8 0.00 0.00 0.00 89 1015.2
20260906105342 20 23 3.2 4.8 0.00 0.00 0.00 89 1015.2
20260906105132 20 23 3.2 4.8 0.00 0.00 0.00 89 1015.2
20260906103131 21 0 4.8 4.8 0.00 0.00 0.00 89 1015.2
20260906102450 21 23 4.8 4.8 0.00 0.00 0.00 89 1015.2
20260906102131 21 23 4.8 4.8 0.00 0.00 0.00 89 1015.2
20260906101539 21 248 3.2 3.2 0.00 0.00 0.00 89 1014.8
20260906101131 21 248 3.2 3.2 0.00 0.00 0.00 89 1014.8
20260906095131 21 23 6.4 6.4 0.00 0.00 0.00 89 1014.8
20260906094131 21 0 0.0 3.2 0.00 0.00 0.00 89 1014.8
20260906093131 21 45 3.2 6.4 0.00 0.00 0.00 89 1014.8
20260906092131 21 0 8.0 8.0 0.00 0.00 0.00 89 1014.8
20260906091131 21 23 6.4 6.4 0.00 0.00 0.00 89 1014.8
20260906090132 21 23 4.8 8.0 0.00 0.00 0.00 89 1014.8
20260906085131 21 113 4.8 6.4 0.00 0.00 0.00 89 1014.8
20260906084131 21 0 4.8 6.4 0.00 0.00 0.00 89 1014.8
20260906083131 21 23 4.8 6.4 0.00 0.00 0.00 89 1014.8
20260906082132 21 23 4.8 6.4 0.00 0.00 0.00 88 1014.8
20260906081133 21 23 4.8 4.8 0.00 0.00 0.00 88 1014.5
20260906080132 21 0 4.8 6.4 0.00 0.00 0.00 88 1014.5
20260906075132 21 23 4.8 6.4 0.00 0.00 0.00 88 1014.5
20260906074132 21 0 6.4 6.4 0.00 0.00 0.00 88 1014.5
20260906073132 21 0 6.4 6.4 0.00 0.00 0.00 88 1014.5
20260906072132 21 23 8.0 8.0 0.00 0.00 0.00 88 1014.8
20260906071132 21 23 6.4 6.4 0.00 0.00 0.00 88 1014.5
20260906070132 21 23 4.8 8.0 0.00 0.00 0.00 88 1014.8
20260906065133 21 23 4.8 8.0 0.00 0.00 0.00 88 1014.8
20260906064132 21 23 6.4 8.0 0.00 0.00 0.00 88 1015.2
20260906063132 21 315 4.8 6.4 0.00 0.00 0.00 88 1015.2
20260906062132 21 315 6.4 6.4 0.00 0.00 0.00 88 1015.2
20260906061133 21 23 4.8 4.8 0.00 0.00 0.00 87 1014.8
20260906060132 21 23 4.8 6.4 0.00 0.00 0.00 87 1014.8
20260906055132 21 338 4.8 6.4 0.00 0.00 0.00 87 1014.8
20260906054132 21 293 3.2 6.4 0.00 0.00 0.00 87 1014.5
20260906052132 21 0 4.8 6.4 0.00 0.00 0.00 87 1014.5
20260906051456 21 338 3.2 3.2 0.00 0.00 0.00 87 1014.5
20260906051133 21 338 3.2 3.2 0.00 0.00 0.00 87 1014.5
20260906050605 21 23 6.4 6.4 0.00 0.00 0.00 87 1014.5
20260906050132 21 23 6.4 6.4 0.00 0.00 0.00 87 1014.5
20260906045132 21 338 4.8 6.4 0.00 0.00 0.00 87 1014.5
20260906044646 21 23 6.4 6.4 0.00 0.00 0.00 87 1014.2
20260906044132 21 23 6.4 6.4 0.00 0.00 0.00 87 1014.2
20260906043132 21 23 6.4 6.4 0.00 0.00 0.00 87 1014.2
20260906042633 21 23 3.2 6.4 0.00 0.00 0.00 86 1014.5
20260906042132 21 23 3.2 6.4 0.00 0.00 0.00 86 1014.5
20260906041132 21 23 4.8 4.8 0.00 0.00 0.00 86 1014.5
20260906040132 21 23 4.8 6.4 0.00 0.00 0.00 86 1014.5
20260906035132 22 0 3.2 9.7 0.00 0.00 0.00 85 1014.2
20260906034432 22 45 6.4 8.0 0.00 0.00 0.00 85 1014.2
20260906034132 22 45 6.4 8.0 0.00 0.00 0.00 85 1014.2
20260906033618 22 45 4.8 6.4 0.00 0.00 0.00 84 1014.2
20260906033132 22 45 4.8 6.4 0.00 0.00 0.00 84 1014.2
20260906032133 22 23 6.4 6.4 0.00 0.00 0.00 84 1014.2
20260906031132 22 315 9.7 9.7 0.00 0.00 0.00 84 1013.8
20260906030132 22 23 6.4 9.7 0.00 0.00 0.00 83 1013.8
20260906025133 23 23 9.7 9.7 0.00 0.00 0.00 83 1013.8
20260906024437 23 45 9.7 11.3 0.00 0.00 0.00 83 1013.8
20260906024133 23 45 9.7 11.3 0.00 0.00 0.00 83 1013.8
20260906023132 23 23 6.4 8.0 0.00 0.00 0.00 83 1013.8
20260906022132 23 0 8.0 8.0 0.00 0.00 0.00 83 1013.5
20260906021132 24 23 4.8 4.8 0.00 0.00 0.00 82 1013.5
20260906020132 24 0 9.7 9.7 0.00 0.00 0.00 81 1013.5
20260906015132 25 23 4.8 6.4 0.00 0.00 0.00 81 1013.5
20260906014132 25 68 6.4 8.0 0.00 0.00 0.00 80 1013.5
20260906013133 25 23 6.4 9.7 0.00 0.00 0.00 80 1013.2
20260906012132 26 45 3.2 8.0 0.00 0.00 0.00 79 1012.8
20260906011133 26 113 6.4 6.4 0.00 0.00 0.00 78 1012.8
20260906010132 26 45 6.4 6.4 0.00 0.00 0.00 78 1012.8
20260906005416 26 23 6.4 9.7 0.00 0.00 0.00 77 1012.5
20260906005132 26 23 6.4 9.7 0.00 0.00 0.00 77 1012.5
20260906004132 27 23 6.4 8.0 0.00 0.00 0.00 76 1012.5
20260906003132 27 23 8.0 9.7 0.00 0.00 0.00 76 1012.5
20260906002134 28 0 8.0 8.0 0.00 0.00 0.00 76 1012.5
20260906001132 28 45 6.4 6.4 0.00 0.00 0.00 75 1012.1
20260906000132 29 45 6.4 9.7 0.00 0.00 0.00 74 1012.1
20260905235132 30 0 9.7 11.3 0.00 0.00 0.00 73 1012.1
20260905234133 30 45 8.0 8.0 0.00 0.00 0.00 70 1012.1
20260905233132 31 338 6.4 6.4 0.00 0.00 0.00 69 1011.8
20260905232507 31 23 4.8 6.4 0.00 0.00 0.00 69 1011.8
20260905232132 31 23 4.8 6.4 0.00 0.00 0.00 69 1011.8
20260905231630 31 23 4.8 4.8 0.00 0.00 0.00 68 1011.8
20260905231132 31 23 4.8 4.8 0.00 0.00 0.00 68 1011.8
20260905230751 32 338 4.8 8.0 0.00 0.00 0.00 66 1011.8
20260905230132 32 338 4.8 8.0 0.00 0.00 0.00 66 1011.8
20260905225132 32 315 4.8 9.7 0.00 0.00 0.00 64 1011.8
20260905224132 32 23 8.0 9.7 0.00 0.00 0.00 64 1011.8
20260905223131 32 338 8.0 9.7 0.00 0.00 0.00 63 1011.5
20260905222132 33 23 6.4 9.7 0.00 0.00 0.00 63 1011.5
20260905221131 33 23 6.4 6.4 0.00 0.00 0.00 63 1011.5
20260905220131 33 270 6.4 9.7 0.00 0.00 0.00 62 1011.5
20260905215132 33 0 6.4 11.3 0.00 0.00 0.00 63 1011.5
20260905214131 33 23 6.4 8.0 0.00 0.00 0.00 63 1011.5
20260905213132 33 0 9.7 9.7 0.00 0.00 0.00 62 1011.5
20260905212132 33 23 3.2 8.0 0.00 0.00 0.00 62 1011.5
20260905211132 33 338 4.8 4.8 0.00 0.00 0.00 61 1011.8
20260905210132 34 23 8.0 9.7 0.00 0.00 0.00 60 1011.8
20260905205132 34 0 6.4 9.7 0.00 0.00 0.00 60 1011.8
20260905203133 35 338 4.8 6.4 0.00 0.00 0.00 58 1011.8
20260905202132 34 293 6.4 9.7 0.00 0.00 0.00 57 1011.8
20260905200131 35 293 8.0 8.0 0.00 0.00 0.00 56 1011.8
20260905195131 35 293 4.8 8.0 0.00 0.00 0.00 54 1011.8
20260905194132 35 270 3.2 8.0 0.00 0.00 0.00 56 1012.1
20260905193131 33 293 6.4 8.0 0.00 0.00 0.00 59 1012.1
20260905192132 35 293 9.7 9.7 0.00 0.00 0.00 55 1012.1
20260905191132 35 293 8.0 8.0 0.00 0.00 0.00 54 1012.5
20260905190132 36 293 4.8 8.0 0.00 0.00 0.00 54 1012.5
20260905185131 35 23 6.4 6.4 0.00 0.00 0.00 56 1012.5
20260905184131 33 315 4.8 6.4 0.00 0.00 0.00 61 1012.5
20260905183131 33 293 6.4 6.4 0.00 0.00 0.00 59 1012.8
20260905182131 35 293 6.4 8.0 0.00 0.00 0.00 57 1012.8
20260905181132 36 293 6.4 6.4 0.00 0.00 0.00 53 1012.8
20260905180131 35 270 3.2 6.4 0.00 0.00 0.00 51 1012.8
20260905174132 35 293 6.4 9.7 0.00 0.00 0.00 54 1012.8
20260905173132 35 315 6.4 8.0 0.00 0.00 0.00 54 1013.2
20260905172131 35 293 6.4 8.0 0.00 0.00 0.00 56 1013.2
20260905171131 35 270 6.4 6.4 0.00 0.00 0.00 55 1013.2
20260905170131 34 293 8.0 9.7 0.00 0.00 0.00 57 1013.2
20260905165132 35 270 3.2 4.8 0.00 0.00 0.00 60 1013.2
20260905164132 35 203 3.2 6.4 0.00 0.00 0.00 59 1013.2
20260905163132 34 293 6.4 6.4 0.00 0.00 0.00 59 1013.5
20260905162131 33 270 1.6 6.4 0.00 0.00 0.00 64 1013.2
20260905161132 34 225 3.2 3.2 0.00 0.00 0.00 61 1013.5
20260905160131 33 270 4.8 6.4 0.00 0.00 0.00 62 1013.5
20260905155132 32 248 3.2 4.8 0.00 0.00 0.00 67 1013.5
20260905154131 32 270 3.2 4.8 0.00 0.00 0.00 66 1013.5
20260905153132 32 293 4.8 4.8 0.00 0.00 0.00 67 1013.2
20260905152131 32 270 3.2 4.8 0.00 0.00 0.00 69 1013.2
20260905151132 31 270 3.2 3.2 0.00 0.00 0.00 67 1013.2
20260905150131 31 248 6.4 6.4 0.00 0.00 0.00 70 1013.2
20260905145131 30 225 4.8 4.8 0.00 0.00 0.00 72 1013.2
20260905144132 30 270 3.2 4.8 0.00 0.00 0.00 74 1013.2
20260905143132 29 293 6.4 6.4 0.00 0.00 0.00 75 1013.2
20260905142132 28 203 1.6 4.8 0.00 0.00 0.00 77 1013.2
20260905141131 28 248 3.2 3.2 0.00 0.00 0.00 77 1013.5
20260905140132 27 180 3.2 4.8 0.00 0.00 0.00 77 1013.2
20260905135131 27 225 4.8 4.8 0.00 0.00 0.00 77 1013.2
20260905134131 27 203 3.2 4.8 0.00 0.00 0.00 80 1013.2
20260905132131 26 180 4.8 4.8 0.00 0.00 0.00 81 1013.2
20260905131437 26 180 0.0 0.0 0.00 0.00 0.00 82 1013.5
20260905131132 26 180 0.0 0.0 0.00 0.00 0.00 82 1013.5
20260905130131 25 203 3.2 4.8 0.00 0.00 0.00 82 1013.2
20260905125132 25 203 0.0 3.2 0.00 0.00 0.00 83 1013.2
20260905124132 25 180 0.0 3.2 0.00 0.00 0.00 83 1013.2
20260905123131 25 180 3.2 3.2 0.00 0.00 0.00 83 1013.2
20260905122132 25 135 0.0 0.0 0.00 0.00 0.00 84 1013.2
20260905121132 25 180 0.0 0.0 0.00 0.00 0.00 85 1013.2
20260905120133 24 180 0.0 0.0 0.00 0.00 0.00 86 1012.8
20260905115133 24 180 0.0 0.0 0.00 0.00 0.00 86 1012.8
20260905114132 24 180 0.0 0.0 0.00 0.00 0.00 86 1012.8
20260905113132 24 180 0.0 0.0 0.00 0.00 0.00 86 1012.8